GW2586 Weather Reports


time (UTC)temp
F
wind
direction
speed
knots
gust
knots
rain 1hr
in
rain 24hr
in
rain mn
in
humidity
%
barometer
mb
20260504081547 44 248 0.9 3.5 0.00 0.00 0.00 63 1010.9
20260504044535 43 0 0.0 0.0 0.00 0.00 0.00 75 1011.0
20260504043040 42 13 0.0 0.9 0.00 0.00 0.00 74 1011.1
20260504041540 42 0 0.0 0.0 0.00 0.00 0.00 74 1011.2
20260504040042 42 0 0.0 0.0 0.00 0.00 0.00 72 1011.0
20260504034540 41 0 0.0 0.9 0.00 0.00 0.00 74 1010.9
20260504033039 41 0 0.0 0.9 0.00 0.00 0.00 72 1010.9
20260504031538 41 0 0.0 0.9 0.00 0.00 0.00 71 1010.9
20260504030036 42 359 0.0 0.9 0.00 0.00 0.00 69 1010.9
20260504024541 43 0 0.0 0.9 0.00 0.00 0.00 65 1010.6
20260504023043 44 0 0.0 0.9 0.00 0.00 0.00 59 1010.9
20260504021538 44 0 0.0 0.9 0.00 0.00 0.00 59 1010.9
20260504020057 43 0 0.0 0.0 0.00 0.00 0.00 59 1010.9
20260504014548 44 0 0.0 0.9 0.00 0.00 0.00 58 1010.7
20260504013050 44 0 0.0 0.9 0.00 0.00 0.00 57 1010.5
20260504011543 44 0 0.0 0.9 0.00 0.00 0.00 54 1010.4
20260504010043 45 242 0.0 0.9 0.00 0.00 0.00 51 1010.3
20260504004550 45 0 0.0 0.9 0.00 0.00 0.00 50 1010.1
20260504003037 47 0 0.0 1.7 0.00 0.00 0.00 47 1010.0
20260504001545 47 0 0.0 3.5 0.00 0.00 0.00 48 1009.9
20260504000045 47 0 0.0 0.9 0.00 0.00 0.00 45 1009.7
20260503234543 48 0 0.0 1.7 0.00 0.00 0.00 45 1009.6
20260503233042 49 204 1.7 6.1 0.00 0.00 0.00 40 1009.4
20260503231540 50 203 3.5 6.1 0.00 0.00 0.00 38 1009.3
20260503230049 50 174 5.2 12.2 0.00 0.00 0.00 36 1009.1
20260503224536 51 160 2.6 9.6 0.00 0.00 0.00 34 1008.8
20260503223045 52 131 4.3 11.3 0.00 0.00 0.00 34 1008.9
20260503221541 53 200 6.1 13.0 0.00 0.00 0.00 34 1008.8
20260503220047 53 141 3.5 9.6 0.00 0.00 0.00 35 1009.0
20260503214539 53 137 5.2 12.2 0.00 0.00 0.00 35 1008.8
20260503213040 54 205 4.3 11.3 0.00 0.00 0.00 35 1008.8
20260503211537 53 163 3.5 8.7 0.00 0.00 0.00 40 1008.7
20260503210037 52 134 5.2 13.0 0.00 0.00 0.00 38 1008.9
20260503204541 52 217 4.3 15.6 0.00 0.00 0.00 40 1008.9
20260503203052 52 225 4.3 16.5 0.00 0.00 0.00 39 1008.9
20260503201541 51 179 4.3 11.3 0.00 0.00 0.00 41 1009.0
20260503200038 51 222 3.5 17.4 0.00 0.00 0.00 44 1009.2
20260503194544 50 162 5.2 12.2 0.00 0.00 0.00 43 1009.3
20260503193039 50 158 6.1 12.2 0.00 0.00 0.00 46 1009.5
20260503191547 49 316 4.3 18.2 0.00 0.00 0.00 44 1009.7
20260503190043 48 177 7.0 19.1 0.00 0.00 0.00 44 1009.6
20260503184540 48 154 7.0 16.5 0.00 0.00 0.00 45 1009.8
20260503183040 48 132 6.1 16.5 0.00 0.00 0.00 45 1009.9
20260503181541 48 159 7.8 19.1 0.00 0.00 0.00 42 1010.0
20260503180038 47 163 4.3 11.3 0.00 0.00 0.00 46 1009.9
20260503174541 47 221 7.0 12.2 0.00 0.00 0.00 45 1009.9
20260503173041 47 124 6.1 17.4 0.00 0.00 0.00 44 1009.8
20260503171538 47 139 5.2 17.4 0.00 0.00 0.00 46 1009.8